Погода в Кондоме

Россия / Кемеровская область (Кузбасс)     52°49′10″N   87°16′33″E
темп.,
°C
ветер,
м/с
пор.,
м/с
влажн.,
%
обл.,
%
осадки,
мм/ч
давл.,
гПа
погр.,
м
13 июня, вс
вс1301:00+9юз279994 1.7 1015293
04:00+7ю239998 0.0 1016125
07:00+9ююз2599100 0.0 1016478
10:00+10юз2393100 0.1 1016508
13:00+13зюз3573100 0.1 1016953
16:00+16зюз3456100 0.4 10151343
19:00+14юз3587100 1.3 1015376
22:00+10ююз2395100 1.3 101650
14 июня, пн
пн1401:00+10ююз2397100 1.6 101775
04:00+9ю2398100 1.0 101672
07:00+9ююз1297100 1.1 101864
10:00+10ююз1499100 1.1 1018290
13:00+13ссз119447 2.2 1018363
16:00+15зсз229136 3.0 1017539
19:00+15с12905 4.4 1017305
22:00+10всв11936 0.6 101810
15 июня, вт
вт1501:00+8вюв11955 0.6 101810
04:00+7юв11964 0.0 101810
07:00+10вюв11955 0.0 101980
10:00+18св126041 0.0 1018898
13:00+21с224192 0.1 10162202
16:00+22сз133718 0.0 10162199
19:00+20сз355268 0.0 1016924
22:00+12зсз01905 0.0 101711
16 июня, ср
ср1601:00+10юв11903 0.0 101710
04:00+9ююв11920 0.0 101710
07:00+13ююв12740 0.0 1017100
10:00+20з11515 0.0 1016836
13:00+24ссз22403 0.0 10151627
16:00+25сз22380 0.0 10142059
19:00+22сз34580 0.0 1013500
22:00+15ююв00922 0.0 101410
17 июня, чт
чт1701:00+13юв11945 0.0 101410
04:00+12юв11951 0.0 101410
07:00+15юв12875 0.0 101382
10:00+23зсз015521 0.0 1012760
13:00+26сз223867 0.0 10101843
16:00+27зсз33315 0.0 10092247
19:00+23зсз35514 0.0 1008414
22:00+15ю11835 0.0 100911